Theta_e
305 306 306 306 306 305 305 304 304 304 304 305 306 306 305 305 305 305 305 304 305 306 305 304 305 305 305 305 304 304 305 305 306 306 307 309 309 309 309 309 311 311 312 313 313 314 316 316 317 318 317 315 313 313 314 316 321 324 325 324 323 325 326 319 315 319 322 323 325 326 325 325 323 322 324 324 322 319 317 316 316 315 312 311 311 310 315
305 306 306 306 306 305 305 304 304 304 304 304 306 305 304 304 305 305 305 305 305 305 304 304 305 304 304 304 304 304 304 305 306 306 307 309 310 309 311 310 310 311 311 312 313 313 315 316 316 317 317 315 313 312 313 316 319 320 320 323 321 321 324 321 316 318 319 319 320 320 322 323 322 323 325 324 323 324 322 319 318 315 312 312 312 309 314
305 306 306 306 306 305 305 304 304 304 303 303 305 306 304 304 305 305 305 305 305 304 303 304 304 304 304 304 305 305 304 304 305 305 306 308 308 309 311 310 310 311 311 311 313 312 314 315 315 315 316 315 313 312 313 315 316 317 317 320 320 322 326 323 318 317 316 316 316 316 318 320 321 323 325 324 324 323 320 316 313 314 315 315 312 310 316
305 306 306 306 306 306 305 305 304 305 304 303 305 306 304 303 305 304 304 304 304 304 303 303 304 304 304 304 305 305 305 305 304 304 306 306 306 308 310 309 309 311 311 311 313 312 313 314 315 315 315 315 313 312 313 314 315 317 318 318 320 325 329 327 325 323 320 320 322 324 323 319 316 319 322 323 324 324 321 315 312 315 317 314 315 316 317
305 305 305 306 306 306 306 305 305 305 304 303 305 306 304 303 304 304 304 304 304 304 303 303 304 304 304 304 305 305 305 305 305 305 305 305 305 308 309 308 309 310 311 312 313 313 313 313 314 314 314 315 314 312 313 314 315 317 317 316 320 325 325 326 330 328 324 324 325 325 324 321 318 317 319 321 324 324 320 314 315 320 316 312 320 324 318
305 305 305 306 306 306 306 305 305 305 304 304 306 306 304 304 303 303 304 304 304 303 303 303 304 304 304 304 306 306 305 305 305 305 305 304 305 308 309 308 308 308 309 311 313 313 314 314 314 314 314 314 314 314 313 313 314 315 315 315 319 322 321 322 324 323 321 321 322 322 324 324 323 322 321 321 323 322 319 317 320 323 317 314 323 326 322
304 304 304 305 306 306 306 306 306 305 304 305 306 305 304 304 303 303 304 303 303 303 303 303 303 303 304 305 306 305 304 305 305 305 305 305 306 307 307 307 306 307 308 310 311 313 314 315 314 314 314 314 314 315 314 314 313 313 313 315 317 318 322 323 320 319 320 320 321 322 322 323 323 324 324 324 324 323 322 322 323 323 320 321 327 328 327
304 304 303 304 305 305 306 306 306 305 305 305 306 305 304 304 304 304 304 303 303 303 303 303 303 303 304 305 305 304 304 305 305 305 305 306 307 306 306 306 306 307 308 309 310 311 312 312 312 312 313 313 314 315 315 314 314 313 313 314 315 316 320 321 318 318 319 319 320 321 321 322 321 322 323 324 323 324 323 324 325 324 323 325 326 325 326
303 302 302 302 303 304 305 306 306 306 305 305 306 305 304 305 305 305 304 304 304 303 303 303 303 303 304 305 304 304 304 305 305 305 305 306 307 306 306 306 306 306 307 308 308 309 309 309 310 310 310 312 312 313 313 313 313 313 314 314 315 316 317 318 318 318 318 318 319 319 320 320 318 318 321 322 321 322 322 324 325 323 323 324 322 321 324
301 301 301 301 301 302 303 305 306 306 305 306 306 305 304 306 305 305 305 305 304 303 303 303 303 303 303 304 303 303 304 304 305 306 306 306 306 306 305 306 306 306 307 307 307 307 307 307 308 308 309 309 310 311 312 311 312 313 314 314 314 315 315 317 317 317 317 318 318 317 318 318 317 318 321 322 323 323 323 324 326 326 324 323 320 321 327
301 301 301 301 301 301 303 304 306 306 306 306 306 305 305 305 305 305 305 305 304 303 303 303 303 303 303 303 303 303 303 304 305 306 306 305 305 305 305 306 306 306 307 308 307 306 306 307 307 307 308 308 309 310 310 310 311 312 313 313 314 314 315 316 317 318 318 317 317 318 317 317 319 322 324 324 324 323 322 323 324 325 325 325 325 327 329
301 301 301 301 302 304 304 305 305 306 306 306 306 305 305 305 305 305 305 305 304 303 303 303 303 303 303 303 303 303 304 304 304 305 305 305 305 305 305 306 307 307 307 306 306 305 306 307 307 308 308 308 309 309 310 310 310 311 311 312 313 314 315 315 316 318 317 317 318 319 318 318 321 325 328 327 326 326 327 327 327 326 326 326 326 327 328
302 301 301 301 303 305 306 306 306 306 306 306 306 305 305 305 305 306 305 305 304 303 303 303 303 303 303 303 303 303 303 304 304 304 304 305 305 305 305 306 307 307 306 305 306 307 307 308 308 309 309 309 309 309 309 310 310 310 310 311 312 313 314 314 315 317 318 318 318 319 320 320 322 325 328 329 331 332 329 326 327 327 326 327 329 328 327
301 301 301 302 305 306 306 306 306 306 306 306 306 305 305 305 305 305 305 305 304 303 303 304 303 303 303 303 303 303 303 303 304 304 304 304 305 305 305 305 306 306 306 306 307 309 309 309 309 309 309 309 310 310 310 310 310 309 310 311 312 312 313 313 314 316 318 318 317 318 319 319 320 325 331 333 334 336 333 327 327 332 334 337 339 337 333
300 301 303 305 306 306 307 307 307 307 307 307 306 306 305 305 305 305 305 305 305 304 303 304 303 303 304 303 303 303 303 303 304 304 304 304 304 304 304 305 306 307 306 306 308 309 310 310 309 309 309 309 310 311 310 311 310 310 310 310 311 312 313 314 314 314 316 317 317 318 318 318 320 325 333 335 332 336 338 331 330 340 343 341 342 342 339
301 303 304 305 306 307 307 307 307 307 308 307 306 306 306 305 305 305 305 305 305 304 304 304 304 303 304 303 303 303 303 303 304 304 305 305 305 304 304 305 307 306 305 307 309 309 310 310 310 309 309 309 310 311 311 311 311 310 310 309 311 312 312 313 314 313 314 315 317 318 317 319 324 329 333 333 330 335 336 325 325 339 345 340 343 345 344
304 305 305 305 306 307 307 307 307 308 308 308 307 306 306 305 305 305 305 305 305 304 303 303 303 303 303 303 303 303 303 303 304 304 305 306 305 304 305 305 306 306 306 308 309 310 309 310 310 310 309 310 311 311 310 311 311 313 312 310 310 311 312 312 312 313 314 314 315 316 316 318 326 331 331 329 328 335 333 321 323 339 344 340 343 345 345
305 306 306 306 306 307 307 307 307 308 309 309 308 307 306 306 305 305 305 305 305 304 303 303 303 303 303 303 303 303 303 303 304 304 304 305 305 305 306 306 305 306 307 308 309 310 309 309 309 310 310 310 310 310 311 311 311 314 316 314 311 312 313 312 312 312 313 314 314 315 316 318 321 325 328 329 328 328 325 323 329 340 341 341 343 342 343
303 304 306 306 306 307 307 307 308 309 309 309 308 307 306 306 305 305 305 305 305 304 304 304 304 303 304 303 303 303 303 303 304 304 304 304 305 305 305 306 306 306 307 309 310 309 309 309 310 310 310 311 312 312 313 313 313 314 317 317 315 314 313 313 313 313 313 313 314 314 315 316 318 318 321 324 323 321 325 332 338 340 339 342 344 342 343
304 305 306 306 307 307 307 308 308 309 309 309 309 307 307 306 306 305 305 306 306 305 304 304 304 304 304 304 303 303 303 303 304 304 304 304 305 304 304 306 307 307 308 309 309 309 309 309 310 310 310 311 313 313 312 312 312 313 315 317 317 316 315 314 313 313 314 314 314 314 314 317 321 322 322 321 322 325 333 338 338 337 338 340 342 343 343
306 307 307 307 307 307 308 308 309 309 308 309 309 308 307 307 306 305 305 305 306 305 305 304 305 304 304 304 304 304 304 303 304 304 304 304 304 304 305 306 306 306 307 308 308 309 309 309 310 310 310 311 312 313 313 312 312 312 313 314 315 317 317 317 316 315 315 314 314 316 319 322 325 326 327 328 328 332 337 336 334 336 339 338 341 344 342
306 307 307 307 307 308 308 309 309 308 308 308 309 309 308 307 307 306 305 305 305 305 305 305 305 305 304 304 304 304 304 304 304 304 304 304 304 304 304 305 305 305 306 306 307 308 309 309 309 310 310 310 311 312 313 312 312 313 313 314 314 316 317 318 319 319 318 317 317 319 321 322 322 324 328 331 332 332 334 334 334 336 338 338 341 342 341
307 307 307 308 308 308 309 309 309 308 308 308 309 309 308 308 307 306 305 305 305 305 305 305 305 304 305 305 305 305 305 305 305 304 304 304 304 304 304 305 305 306 306 306 307 308 309 309 309 309 310 310 311 312 313 312 310 311 312 312 314 315 315 316 317 317 318 318 318 318 319 320 321 323 325 327 329 330 331 333 335 337 337 338 339 339 338
307 307 308 308 308 308 308 309 308 308 309 309 309 309 309 308 307 306 305 305 305 305 305 305 305 305 305 305 305 305 305 305 305 305 305 305 305 305 305 305 305 305 306 307 308 308 309 309 309 309 310 310 311 311 312 311 310 311 311 311 312 313 313 314 315 316 316 317 318 318 319 319 320 322 322 323 327 329 330 333 336 336 336 337 337 337 337
307 307 308 308 308 308 308 309 309 309 309 309 309 309 309 308 307 306 306 306 305 305 305 305 305 305 305 304 304 304 305 305 305 305 305 305 305 305 305 305 305 305 306 307 307 308 309 309 308 309 309 310 310 311 311 311 311 311 311 311 312 312 313 314 314 315 315 316 317 316 317 318 318 319 319 321 325 329 331 332 334 335 335 335 335 335 336
307 307 308 308 308 308 308 308 309 309 309 309 309 308 308 308 308 307 306 306 306 305 305 305 305 305 305 304 304 305 305 305 305 306 306 306 306 306 306 306 305 305 306 306 306 307 308 308 308 308 309 310 310 311 311 311 311 311 311 311 311 312 312 313 313 314 314 314 315 316 317 317 316 317 319 321 325 329 332 332 333 335 336 336 335 335 334
307 307 308 308 308 308 308 309 309 309 309 309 309 309 308 308 308 307 306 306 306 306 305 305 306 306 305 305 305 306 306 306 306 306 306 306 306 306 306 306 305 306 306 306 306 307 307 307 307 308 308 308 309 310 310 310 310 310 310 311 311 312 312 312 313 313 313 313 315 317 318 319 319 320 323 325 324 325 327 331 334 336 337 337 336 336 334
307 307 308 308 308 308 308 308 309 309 309 309 309 308 308 308 308 308 307 306 306 307 307 306 306 306 306 306 306 307 306 306 306 306 307 307 307 307 307 306 305 306 306 306 307 307 307 307 307 307 307 308 309 309 309 310 311 311 311 311 312 312 312 312 312 313 313 314 315 317 318 318 319 320 321 321 321 321 323 325 328 332 336 337 337 337 336
307 307 308 308 308 308 308 308 309 309 309 309 309 309 308 308 307 307 307 307 306 306 307 306 306 306 307 307 307 307 307 307 307 307 307 307 307 308 308 307 306 306 306 306 307 307 307 307 307 307 308 309 310 310 310 310 311 311 311 312 312 312 312 313 313 313 314 314 314 315 315 316 316 317 318 319 320 321 321 320 321 327 333 336 336 336 335
307 308 308 308 308 308 308 308 309 309 309 309 308 308 308 308 307 307 307 307 306 306 306 306 306 306 307 307 307 307 308 308 307 308 308 308 307 308 308 308 307 307 307 307 307 307 307 308 308 308 308 309 311 311 310 310 311 311 311 312 313 313 313 313 313 313 314 313 313 314 314 315 315 316 316 318 319 320 320 319 320 326 332 334 335 334 331
308 307 307 308 308 309 309 309 309 308 309 309 309 309 310 310 308 306 306 307 306 305 306 306 306 306 306 307 308 308 309 309 308 309 309 308 308 308 309 308 308 308 308 307 307 308 308 308 308 309 309 309 311 312 312 312 312 312 312 313 313 313 312 312 312 313 313 312 313 313 314 315 316 316 316 317 319 321 322 322 323 327 330 332 333 332 329
308 307 308 308 309 310 309 309 309 309 309 309 309 309 309 308 307 306 306 306 307 306 305 306 307 306 307 308 309 309 309 310 310 310 310 310 309 309 309 308 308 308 308 308 309 309 309 309 309 309 309 311 313 313 312 312 312 312 312 312 313 313 313 313 312 312 312 311 312 313 314 315 316 316 317 318 319 321 324 326 327 328 329 330 330 330 329
308 308 308 309 310 310 310 309 309 309 309 309 308 308 307 306 306 306 306 306 306 306 306 306 306 307 308 308 309 309 310 310 310 311 311 311 310 310 309 309 308 308 309 309 310 310 309 309 310 310 310 313 314 313 312 312 312 312 311 312 313 314 314 313 312 311 311 311 312 313 314 315 316 317 318 319 321 323 326 327 326 327 328 328 328 327 327
309 309 309 310 310 310 310 309 309 309 309 309 309 309 308 307 306 306 305 306 306 306 306 306 306 307 308 308 309 311 310 310 311 311 312 312 311 311 310 310 309 310 310 309 309 310 310 310 311 312 313 315 314 312 312 313 313 313 313 314 314 314 314 314 313 311 311 311 312 313 314 315 317 318 319 321 323 326 327 327 326 326 327 327 326 325 325
309 309 310 310 309 309 310 310 310 310 310 310 310 309 309 308 307 306 305 306 306 306 306 306 306 307 308 309 311 311 310 310 311 312 312 313 312 311 312 312 311 311 311 310 310 311 312 312 313 313 314 315 314 313 314 314 314 314 315 315 315 315 316 316 315 314 313 313 314 315 315 316 318 319 320 322 325 327 327 326 326 327 327 326 325 325 326
310 310 310 309 308 310 311 312 312 312 312 311 310 309 309 309 308 306 305 305 306 306 306 305 306 307 308 309 310 310 310 311 313 313 313 315 315 314 314 315 314 313 314 313 313 314 313 313 314 314 315 315 316 316 316 317 316 316 317 317 316 316 316 316 317 317 317 317 317 317 317 318 319 321 323 325 327 327 326 325 326 327 326 325 327 328 328
311 311 310 309 310 313 315 315 312 312 311 310 309 309 309 308 308 306 305 305 306 306 305 304 305 306 307 307 308 310 311 312 314 314 314 315 315 315 316 315 314 314 314 313 313 314 313 313 314 315 315 315 316 316 316 317 317 317 317 317 317 318 318 319 319 320 321 321 320 320 319 319 321 324 326 327 327 327 326 326 326 327 326 326 327 329 330
312 312 312 314 316 317 317 316 312 310 310 309 309 310 311 309 308 308 307 307 308 307 306 304 304 306 306 306 308 310 312 312 312 313 313 313 313 314 314 313 312 312 312 312 311 311 311 312 312 312 313 315 316 317 317 317 318 319 319 319 320 322 323 323 322 323 324 325 325 323 323 324 326 327 327 327 327 327 326 326 325 327 328 327 327 328 330
315 316 317 319 318 316 316 315 311 310 310 310 311 313 313 312 311 311 310 309 309 308 306 305 305 306 306 308 310 311 311 312 312 312 312 312 313 313 312 311 311 310 311 313 311 310 311 312 311 310 313 316 317 317 319 320 320 321 321 320 322 325 326 325 324 325 327 328 327 326 326 328 328 327 327 327 327 328 328 327 326 326 327 328 328 328 330
318 319 320 319 317 316 315 313 310 310 312 314 314 315 316 315 315 315 315 314 313 312 309 308 309 308 307 308 312 313 313 313 314 314 313 313 313 312 312 311 310 310 312 314 312 308 309 312 312 313 316 318 317 317 319 319 320 320 320 320 321 325 326 325 325 326 326 327 327 327 327 327 327 327 327 328 328 328 328 327 327 328 329 329 329 329 330
318 318 318 317 315 313 313 313 312 314 316 317 316 316 317 317 317 317 318 319 319 317 314 313 314 315 312 310 311 314 314 314 314 314 315 315 314 313 313 313 311 312 315 316 314 311 310 313 315 316 318 318 317 317 318 318 318 319 319 318 320 323 325 325 326 326 327 327 328 327 327 326 326 326 327 328 328 329 329 329 329 330 330 330 330 330 329
314 313 313 312 312 313 314 316 317 317 317 316 316 316 317 318 319 319 320 321 321 321 320 318 319 320 318 315 314 315 316 316 315 315 317 317 316 315 317 316 314 315 317 319 318 315 315 316 318 318 318 317 317 317 317 318 318 318 318 318 319 320 321 322 323 324 325 327 327 327 327 328 328 328 329 329 329 329 329 329 329 329 329 329 329 329 328
312 312 312 314 315 317 317 317 316 316 315 315 316 317 317 318 318 319 320 319 319 321 323 322 321 321 320 318 318 318 317 316 316 317 320 320 318 318 319 319 318 319 320 320 318 317 317 317 318 318 317 318 318 317 317 318 317 317 318 318 318 319 319 320 320 320 320 321 322 323 324 325 326 326 327 327 328 327 326 327 327 327 327 328 328 327 327
315 316 317 317 317 316 317 316 315 316 316 316 316 318 319 319 318 319 320 318 317 319 320 322 323 323 320 318 319 320 319 318 318 319 321 322 321 320 320 320 320 321 321 319 317 317 317 318 318 318 317 317 317 317 317 317 317 317 318 318 317 318 318 319 319 319 319 319 319 319 320 320 321 322 322 323 325 325 324 324 325 325 325 325 325 324 324
317 316 316 316 315 315 316 316 315 316 317 317 317 318 319 319 318 319 318 317 317 318 317 318 321 322 320 319 320 319 319 320 321 320 320 322 321 319 319 319 319 320 320 318 317 317 317 317 318 318 317 316 317 317 317 317 317 317 317 317 317 318 318 318 318 318 318 318 318 318 318 318 319 319 319 319 320 321 321 321 321 322 321 322 322 322 321
317 314 314 316 316 316 316 316 315 316 317 317 317 318 319 318 318 318 317 316 317 318 318 318 320 319 318 320 321 320 318 319 319 317 319 321 320 319 319 319 318 317 317 317 317 317 317 317 318 318 317 317 316 317 317 317 317 317 317 317 317 317 318 318 319 318 318 318 318 318 318 318 318 318 317 316 316 317 318 318 318 318 318 319 319 319 319
315 313 314 315 316 316 316 316 317 317 316 316 316 316 317 317 318 317 316 316 318 318 318 319 321 319 316 318 319 319 317 317 317 315 316 318 319 318 317 317 316 315 315 315 316 316 316 316 317 317 317 317 316 316 316 316 316 317 317 318 318 317 317 318 318 319 319 319 318 318 318 318 317 317 317 316 316 316 316 316 316 316 316 316 316 316 315
315 314 315 315 316 316 315 316 315 314 314 314 315 315 315 316 316 316 315 316 317 317 317 318 320 319 317 315 316 316 315 316 316 315 314 315 316 316 316 316 315 314 314 314 315 315 315 315 316 317 317 316 315 315 315 316 316 316 316 316 317 317 317 318 318 318 318 318 318 318 318 318 317 316 316 316 316 316 316 316 316 315 315 315 314 314 314
314 314 315 316 315 315 314 314 314 313 313 313 313 314 314 314 315 315 315 316 316 316 316 317 318 317 316 314 314 314 315 315 315 314 314 314 314 314 314 315 315 315 315 315 315 314 313 313 316 317 316 316 316 316 315 315 315 315 314 315 316 317 317 317 318 318 318 318 318 318 317 317 316 316 316 316 315 315 314 313 314 314 314 313 313 313 313
314 314 314 315 315 314 314 314 313 313 313 313 313 313 313 313 314 314 316 316 316 315 315 315 315 315 314 313 313 314 314 314 314 313 314 314 313 313 314 315 315 316 316 316 315 314 313 313 315 316 316 316 316 316 315 315 315 314 314 315 316 317 317 317 317 317 317 317 316 316 316 315 315 315 314 314 313 313 312 311 311 312 312 311 312 312 312
314 314 314 314 314 314 314 314 313 313 313 313 313 313 313 313 314 315 316 316 315 315 315 315 314 313 313 314 314 314 314 313 312 313 313 314 314 314 315 315 316 316 316 315 314 313 313 312 313 315 316 316 316 316 316 316 316 315 315 315 315 316 316 316 316 316 316 315 315 315 315 314 314 313 313 312 312 311 311 311 311 310 310 310 310 311 311
314 314 314 313 313 313 313 314 314 314 313 313 313 313 314 313 314 315 315 315 314 314 313 313 313 313 313 314 315 314 313 313 313 313 314 314 314 314 315 315 315 315 314 313 313 313 313 312 313 314 315 315 315 315 316 316 316 316 316 316 315 315 316 316 316 315 315 315 315 315 315 314 314 313 313 313 312 312 311 311 311 310 310 310 310 310 310
Wind_Speed
24 25 25 25 26 27 28 29 29 29 28 23 21 17 8 5 7 10 15 19 19 11 2 4 5 4 7 8 8 8 8 9 10 10 10 9 8 7 9 10 10 10 8 9 9 8 6 5 3 1 4 7 8 9 11 11 8 4 2 2 1 2 5 8 8 7 7 9 12 16 18 18 17 15 15 14 14 13 11 8 7 7 10 9 8 9 5
23 25 25 25 25 26 26 27 27 27 25 21 18 13 6 6 7 7 10 15 13 7 4 6 6 6 9 10 8 8 7 8 10 10 9 7 7 8 8 7 8 8 8 9 10 8 5 2 1 2 1 5 7 9 11 11 8 5 4 3 1 4 8 9 9 7 8 8 10 13 17 16 12 13 17 17 18 18 14 11 9 7 10 12 9 8 4
22 24 24 24 25 25 25 26 25 24 23 20 15 9 7 7 4 3 8 11 8 5 5 6 6 7 10 11 9 8 6 6 8 10 8 6 7 8 8 9 9 9 9 10 10 8 7 3 1 1 0 4 5 8 10 9 9 8 9 9 4 4 6 10 11 11 11 11 9 8 11 13 11 12 18 20 21 21 16 11 10 9 10 12 11 7 3
21 23 23 23 24 24 25 25 24 23 22 19 13 9 8 6 4 6 8 6 4 4 4 5 6 7 9 9 8 9 9 6 7 9 6 5 8 7 6 11 11 8 8 8 8 8 9 6 3 2 1 2 4 6 7 7 10 11 11 9 5 4 4 7 7 6 5 3 1 3 2 10 16 17 19 19 20 22 16 11 10 9 9 11 11 10 7
21 22 22 22 23 24 24 24 23 22 21 18 11 8 6 5 5 7 7 5 4 4 4 6 7 7 8 7 7 10 11 9 8 8 6 7 9 5 4 10 11 9 10 7 6 6 8 7 4 3 3 4 3 3 3 5 9 11 9 8 5 4 5 5 4 3 2 3 4 6 3 6 13 16 19 18 18 21 20 15 12 10 9 10 10 12 13
21 21 21 20 22 23 23 23 22 21 20 16 10 6 5 5 5 5 5 5 6 6 7 9 9 10 9 6 6 9 11 10 9 8 7 8 8 4 2 7 11 11 11 8 5 4 6 7 4 2 3 5 4 0 3 5 8 8 6 7 5 4 4 3 4 4 3 3 3 2 1 2 4 8 12 15 16 19 19 18 16 14 11 9 8 12 14
20 20 20 19 20 21 22 22 21 20 19 14 9 5 5 4 4 4 5 6 7 8 10 11 11 10 7 4 5 8 10 11 9 8 8 8 6 6 5 7 9 9 9 8 6 6 4 3 3 5 6 6 5 3 2 4 6 8 6 6 6 4 1 2 3 6 4 4 3 2 2 3 5 7 9 10 13 15 15 16 17 18 16 14 12 13 13
19 20 19 19 19 19 21 21 19 19 18 13 8 6 5 4 4 4 5 7 7 8 9 10 9 7 5 4 4 7 9 10 9 8 10 9 5 7 10 10 9 8 8 7 6 6 7 7 7 9 9 6 4 3 1 2 6 8 6 5 5 4 1 2 4 5 5 5 5 4 4 5 7 10 11 12 13 13 13 13 14 15 15 16 16 15 13
20 20 20 20 19 18 19 19 19 17 15 11 7 5 5 5 5 4 5 6 7 7 7 7 7 5 3 4 6 8 9 10 10 10 8 5 3 6 12 12 9 6 6 7 7 6 8 10 10 11 11 8 6 5 5 7 8 7 5 5 5 5 3 2 3 5 5 5 6 7 6 7 11 13 14 15 15 14 13 12 13 13 13 15 15 13 10
21 22 22 22 21 19 17 17 18 16 13 9 7 6 6 5 4 3 4 5 6 7 6 7 7 4 4 6 8 9 9 9 10 9 3 1 3 7 12 12 9 7 7 7 8 9 10 12 12 11 11 12 11 9 10 10 8 6 5 5 4 4 4 2 2 5 4 5 4 5 5 8 12 13 15 17 16 15 14 14 14 14 13 13 12 10 8
22 23 24 24 23 21 18 16 16 16 14 10 8 8 8 6 3 3 3 6 7 6 6 6 6 6 7 9 9 9 9 9 9 7 5 5 8 10 10 11 9 7 6 6 7 10 13 14 13 12 13 15 14 12 13 13 10 7 6 5 4 4 4 3 2 4 4 3 1 3 7 9 6 4 9 15 17 18 17 16 16 17 15 13 11 10 9
24 25 26 26 24 22 19 17 16 16 16 13 10 12 10 5 4 3 2 5 7 7 6 7 7 9 11 12 10 9 10 10 9 9 9 10 10 10 9 9 8 6 6 8 9 11 13 14 14 14 14 15 16 15 15 14 12 9 7 7 6 4 4 4 3 4 5 3 2 6 9 6 1 4 3 4 9 13 14 14 15 15 15 16 16 15 13
26 27 27 27 25 21 20 19 17 17 17 15 13 14 10 5 4 4 3 5 8 7 7 9 11 11 12 11 10 10 11 11 11 10 11 10 10 9 8 7 7 7 8 11 12 11 10 10 10 11 12 13 13 14 16 16 15 13 11 9 8 6 5 4 4 5 5 5 6 9 4 2 1 2 3 3 4 6 8 12 15 16 15 14 14 14 15
28 28 29 28 26 22 21 21 20 19 18 17 16 15 13 9 7 4 2 4 7 8 8 10 10 10 10 10 11 11 11 11 11 9 8 8 9 9 7 6 8 8 8 9 9 8 7 6 6 7 8 8 9 10 13 15 16 16 15 12 10 9 6 5 5 6 6 6 7 7 4 4 5 5 3 3 3 3 2 7 9 8 6 4 4 7 10
30 30 30 28 26 24 23 22 22 21 20 19 18 17 15 13 10 7 4 3 7 9 7 6 8 10 10 11 11 10 9 9 8 8 8 7 6 6 6 6 7 8 7 7 6 5 5 5 5 5 5 7 7 8 8 10 12 16 17 14 12 11 8 6 6 6 6 7 7 8 8 8 7 6 5 5 3 3 2 4 3 5 6 4 3 4 7
31 31 30 28 26 25 24 24 23 22 22 21 19 18 17 15 13 11 6 3 4 7 6 6 9 11 11 10 10 9 8 7 7 7 6 5 4 5 6 5 6 8 7 6 4 4 5 5 5 5 5 4 5 6 6 6 7 11 15 16 16 14 10 7 7 7 7 8 8 8 8 4 2 5 7 6 3 2 2 5 5 5 9 5 3 3 6
32 31 30 29 27 25 24 24 24 23 22 21 20 19 18 16 16 14 9 4 5 7 9 10 11 10 8 8 8 7 6 6 6 6 5 5 7 8 6 5 5 7 6 5 4 3 4 5 4 5 5 3 4 6 6 6 6 8 12 15 16 14 10 8 9 9 8 9 8 7 6 4 2 4 6 6 3 1 4 7 4 5 7 6 3 4 6
32 30 28 28 27 26 25 24 24 23 22 21 21 21 20 17 17 15 9 4 5 7 8 9 9 8 7 7 8 7 6 6 6 6 6 6 6 6 6 6 5 3 3 4 3 3 5 5 3 4 4 2 3 6 5 6 7 7 8 9 12 11 9 9 10 10 9 10 9 7 5 5 4 4 4 4 2 3 6 5 2 3 3 3 2 5 6
33 31 29 27 27 27 26 25 23 22 21 21 19 20 20 18 19 19 11 4 5 7 7 8 10 11 10 9 8 7 7 8 7 6 6 5 4 7 9 7 4 2 2 3 4 4 5 4 1 2 4 2 1 4 5 6 6 4 5 7 9 10 9 9 9 9 9 9 9 8 7 3 4 8 7 3 4 4 2 1 2 1 3 2 1 3 4
33 31 29 28 27 27 27 26 24 22 21 21 18 18 19 18 20 22 16 7 4 7 11 13 14 14 13 11 10 9 8 8 7 6 7 6 5 9 8 2 1 2 3 3 3 3 3 3 1 0 3 3 2 4 4 6 7 4 4 6 6 6 7 9 10 9 8 8 9 9 7 1 3 5 7 7 6 4 3 2 1 1 4 4 2 2 2
31 30 29 28 27 27 27 25 24 23 22 21 19 17 18 18 19 23 21 14 6 5 7 8 10 13 14 13 14 15 13 12 11 8 7 7 6 6 5 2 3 3 2 2 3 2 1 3 2 1 3 3 2 4 5 5 5 5 6 6 5 5 6 7 7 6 6 9 9 4 2 4 8 7 3 4 6 7 7 6 4 2 4 4 3 3 3
30 29 28 28 27 27 26 25 24 24 23 21 18 14 15 16 17 20 21 18 13 9 9 10 14 19 22 22 22 21 19 19 18 14 10 8 6 6 6 6 6 4 2 3 4 2 1 3 2 2 4 3 3 5 7 6 4 4 5 6 5 4 2 2 4 3 4 7 6 6 9 9 8 7 6 9 10 9 7 8 7 4 3 3 4 4 4
31 30 28 28 27 26 26 25 25 25 23 20 16 13 14 15 17 19 19 16 12 11 14 16 17 19 20 20 20 20 19 18 19 18 15 11 8 7 7 7 6 4 3 4 4 3 3 3 3 3 4 3 4 6 6 6 5 3 4 6 5 2 0 2 3 5 7 9 10 11 12 12 10 9 9 11 12 9 8 8 7 5 4 4 4 4 5
30 30 29 28 27 27 26 25 24 23 21 18 15 13 14 15 16 18 15 10 6 6 8 10 10 10 12 12 11 12 13 14 14 15 15 14 10 7 6 6 5 5 4 4 4 3 3 3 3 3 4 4 4 5 6 6 5 5 5 6 7 5 4 3 5 7 7 7 8 10 12 14 13 11 10 11 12 11 9 8 7 6 6 5 4 4 4
30 29 28 28 27 27 27 25 23 21 18 16 14 11 12 14 16 18 15 7 3 3 4 6 7 9 11 11 10 10 12 12 13 13 15 17 16 11 8 6 6 7 6 5 4 4 4 4 4 4 5 5 4 5 7 6 4 5 6 6 6 4 2 4 8 9 9 9 10 13 15 16 16 14 10 9 10 11 10 9 8 7 7 5 4 3 3
30 29 28 28 28 28 27 25 22 19 16 13 12 11 11 12 13 18 17 7 2 3 5 6 7 6 7 10 13 14 14 14 15 15 17 19 20 19 16 12 10 10 8 6 5 5 5 5 5 6 6 5 4 5 7 7 7 7 8 8 8 5 5 7 9 9 10 12 13 13 14 15 16 16 12 8 8 11 12 11 10 9 8 5 4 2 1
30 30 29 30 30 29 27 24 21 18 14 12 11 11 12 11 12 16 17 10 3 2 5 6 6 6 10 16 19 17 14 14 15 16 17 18 20 21 19 14 10 9 8 7 7 6 6 6 7 8 7 6 6 7 8 8 9 9 9 10 9 9 9 9 8 9 10 10 9 9 9 9 11 10 8 8 9 11 14 14 12 10 8 5 3 2 1
31 31 31 30 29 28 25 23 19 15 11 10 9 9 10 11 12 14 17 16 11 5 4 6 8 10 11 14 14 11 10 12 13 14 15 16 18 19 17 13 10 9 8 7 7 6 7 8 7 7 7 6 7 8 8 8 9 9 10 10 9 9 10 9 9 10 11 11 10 9 8 10 11 10 11 11 9 9 12 15 15 13 10 6 3 2 3
33 32 31 30 29 28 25 20 15 10 7 6 5 5 7 10 12 13 15 17 16 9 5 6 8 9 8 9 9 9 9 10 12 13 14 14 16 17 15 12 11 9 8 7 7 7 8 8 7 7 6 5 5 6 7 8 9 11 12 11 10 11 12 12 13 14 15 15 15 13 12 14 15 14 13 12 10 9 11 14 17 17 12 7 5 4 4
34 32 31 30 29 26 21 15 10 6 5 5 4 3 3 4 8 12 13 16 18 12 4 4 5 6 7 8 9 9 8 8 10 14 14 13 13 13 13 12 11 9 8 7 7 8 7 6 7 8 8 7 5 4 5 8 10 11 12 13 12 13 14 13 14 15 15 14 14 14 16 17 15 13 13 13 12 11 11 13 17 17 11 7 7 7 6
33 30 31 30 26 20 14 9 4 4 8 8 5 3 1 0 2 6 9 13 17 11 3 3 5 6 7 6 7 8 9 8 9 11 13 13 12 13 14 13 10 8 9 8 7 8 7 7 7 8 8 8 7 4 5 8 9 11 14 14 12 13 14 13 12 13 14 13 14 15 17 17 14 12 13 13 11 9 11 15 16 13 8 5 6 8 7
32 31 31 27 19 11 6 2 2 6 9 9 5 2 1 2 1 2 6 12 13 8 2 2 4 5 4 3 5 8 9 9 7 7 8 9 9 10 12 11 9 9 10 8 6 6 7 8 9 9 8 7 6 4 5 8 11 15 17 13 10 10 11 11 11 13 13 12 13 15 17 17 15 14 13 12 10 10 13 14 12 9 6 4 6 9 9
32 30 27 20 11 7 4 3 6 8 8 8 6 5 4 3 0 2 8 13 9 4 2 2 4 4 3 5 6 4 4 5 5 4 5 6 7 6 8 8 8 8 9 8 6 4 5 7 8 8 7 5 5 5 7 10 16 20 19 14 11 10 11 12 14 15 15 14 14 16 17 15 13 13 12 12 11 11 10 8 8 8 7 6 8 10 11
30 26 21 12 8 6 6 8 9 7 4 4 3 3 4 4 4 5 12 12 5 1 2 2 4 4 4 6 4 1 3 4 4 3 2 3 4 5 5 5 5 6 8 9 7 5 5 6 7 7 5 4 4 6 9 12 16 18 16 15 14 13 14 16 17 18 19 18 18 19 20 17 12 11 11 11 12 10 6 6 7 9 8 8 9 9 10
24 20 14 7 6 6 9 10 8 4 2 2 1 2 3 3 4 9 14 11 3 1 2 2 3 3 4 6 3 4 6 6 5 4 4 2 3 3 3 3 4 5 5 5 5 6 6 5 5 6 6 4 6 8 8 10 13 13 13 14 15 14 15 17 17 17 18 19 19 19 19 18 15 13 12 12 11 9 8 7 7 8 5 7 10 9 8
17 13 8 4 4 4 5 5 4 3 2 2 2 3 3 2 3 10 15 9 1 0 1 1 3 3 3 4 3 4 6 6 4 4 3 2 1 2 2 2 3 3 1 2 4 6 4 2 3 6 6 5 6 8 8 11 14 15 14 16 17 15 15 17 19 18 18 19 21 21 18 17 16 14 12 11 9 9 10 8 7 5 3 6 9 9 8
10 8 5 2 2 1 1 3 4 6 5 2 1 4 8 9 6 7 10 6 2 2 1 1 3 4 2 3 3 3 4 4 3 3 2 2 2 1 1 1 2 2 1 2 3 3 3 2 3 5 6 7 10 12 13 14 16 16 15 17 18 16 14 15 18 19 16 16 19 19 17 17 16 12 10 11 10 11 11 10 8 7 6 6 7 8 8
9 6 1 2 2 2 3 3 4 6 4 3 6 6 5 5 3 3 4 3 2 2 2 1 4 3 2 3 3 2 2 2 3 3 2 2 2 1 1 1 1 2 2 2 2 2 3 3 3 4 6 7 10 13 12 10 11 11 11 12 14 12 8 6 8 12 12 11 14 17 16 16 15 12 10 11 10 9 10 10 9 8 8 7 7 7 8
9 4 1 3 3 4 4 6 7 3 3 6 5 2 1 1 1 1 1 2 2 2 2 2 4 3 3 4 4 2 2 2 3 3 2 2 2 2 2 1 1 1 2 2 1 2 2 3 2 2 4 7 12 16 14 11 10 10 10 13 14 6 1 4 6 9 8 8 12 16 16 15 14 12 9 8 7 7 8 9 9 9 9 8 8 8 9
7 3 2 3 5 4 5 7 5 1 4 2 1 1 1 1 1 2 1 1 1 0 1 2 3 3 5 5 5 2 3 2 3 3 2 2 1 0 1 2 2 2 2 2 1 1 2 2 2 2 6 9 13 16 16 14 14 15 15 16 15 6 6 7 7 7 7 7 10 13 13 14 14 12 9 9 8 8 8 8 8 8 9 9 9 9 11
5 4 3 3 6 8 7 5 1 2 1 2 2 2 2 3 2 1 3 5 5 2 1 2 4 3 2 4 4 3 2 2 2 2 2 2 0 1 2 2 1 1 3 2 1 1 2 3 3 5 9 11 13 16 18 17 16 16 16 18 18 13 9 8 7 8 9 10 10 10 11 14 13 11 10 9 8 7 7 8 8 9 10 10 10 12 15
6 4 3 5 7 7 6 3 2 1 2 3 3 3 4 4 3 2 3 4 4 3 1 2 6 7 3 2 3 3 2 1 1 2 2 2 0 1 2 2 1 2 4 3 2 2 3 4 6 8 9 11 13 15 17 17 18 19 19 20 20 19 16 14 13 12 10 10 10 9 9 11 10 9 9 9 8 7 8 9 9 10 11 12 13 14 16
9 6 3 3 3 3 3 4 4 4 3 3 4 4 5 5 5 4 3 3 3 4 3 3 4 5 3 2 3 3 1 1 1 2 2 2 1 1 2 2 2 3 3 2 3 4 5 7 9 10 10 10 12 14 15 15 16 18 20 21 21 20 19 20 20 18 17 16 16 14 11 10 10 11 11 11 11 11 11 12 12 13 15 16 16 15 17
8 5 2 0 2 3 4 3 3 4 5 4 4 5 7 8 7 6 5 5 5 6 6 5 5 5 5 4 3 2 1 1 1 1 2 3 2 2 3 4 4 3 2 2 4 4 5 6 8 9 10 11 11 12 13 13 13 14 16 19 20 21 23 24 22 19 18 20 20 18 15 12 14 16 16 14 15 15 14 13 16 19 20 20 20 19 20
4 3 3 3 4 4 4 3 3 4 5 4 3 3 5 7 7 7 6 5 5 7 7 7 6 6 6 4 3 2 3 2 1 2 3 3 3 4 4 4 4 3 3 4 4 4 6 8 8 9 12 13 13 13 12 12 11 12 14 16 18 20 22 23 21 19 20 21 20 18 16 15 17 17 17 20 24 23 18 17 20 24 25 24 22 22 23
3 4 4 5 5 4 4 4 4 4 4 4 4 4 4 5 6 6 5 5 5 6 7 7 6 6 7 5 2 2 4 3 3 4 3 3 4 4 3 3 4 5 5 6 5 6 8 10 10 10 12 13 13 14 13 12 11 13 14 15 17 18 18 18 18 19 19 19 18 17 17 17 18 18 19 24 29 29 26 26 29 29 27 25 22 21 24
4 3 3 4 4 5 5 5 5 4 5 5 5 5 5 5 4 4 5 5 5 5 5 5 4 4 5 4 3 3 4 4 4 5 4 3 4 4 3 4 6 5 5 6 7 7 7 9 10 11 13 14 14 15 15 13 14 16 16 15 15 16 16 16 17 17 17 16 16 15 14 16 19 21 20 22 25 26 27 29 30 30 29 27 25 25 27
4 3 3 3 4 5 6 6 6 6 7 7 7 7 6 5 5 6 6 6 5 5 5 5 3 3 3 3 3 4 4 4 4 5 5 4 3 4 4 6 7 5 4 6 8 8 8 9 10 10 12 13 14 15 15 14 14 16 17 17 16 16 16 17 17 16 16 16 15 13 13 16 19 20 19 18 20 21 23 25 27 29 29 29 27 26 26
5 3 3 3 3 4 6 6 6 7 8 8 8 8 8 8 8 8 8 6 6 5 5 4 4 4 4 4 4 6 6 5 5 5 5 5 5 5 5 6 7 6 4 5 6 7 8 10 10 10 11 12 12 12 13 13 13 13 14 14 14 14 15 16 18 18 18 17 16 15 16 17 18 18 18 17 16 18 21 25 27 27 27 26 23 21 21
5 4 4 5 5 6 6 7 8 9 9 9 9 9 9 9 9 9 8 8 6 5 4 4 4 5 5 4 4 6 7 6 5 5 6 7 7 6 7 7 7 6 5 5 6 7 8 9 9 10 11 12 12 11 11 12 12 12 12 13 13 14 15 17 18 18 19 19 19 19 19 18 17 16 16 15 16 18 22 24 25 24 24 23 21 19 18
4 4 5 6 7 7 7 8 9 10 9 9 8 8 8 8 8 9 10 9 6 6 6 6 5 4 5 5 5 5 5 5 6 7 7 6 5 5 6 7 7 5 5 6 6 7 7 8 8 9 10 11 12 11 11 11 11 12 12 13 14 15 16 17 18 17 18 19 20 20 18 17 17 16 16 17 19 19 19 19 20 22 22 22 20 19 18
3 4 5 6 6 6 6 6 7 8 8 8 7 8 8 8 8 10 11 9 7 7 8 6 5 5 6 6 5 4 4 5 7 8 7 5 4 4 5 6 6 5 5 6 6 6 7 7 8 9 10 10 11 11 11 11 11 12 13 14 15 14 15 15 16 16 16 16 16 17 16 16 17 17 17 18 17 15 12 13 16 19 19 18 18 18 18
Wind_Direction
347 349 350 350 352 355 355 355 355 355 358 360 351 340 333 339 330 328 341 343 333 321 328 6 349 357 356 332 315 319 314 318 324 328 335 324 306 294 271 265 273 272 285 292 277 275 286 286 292 38 75 55 32 11 358 346 332 308 248 146 84 269 228 217 217 202 206 205 186 196 211 206 204 209 206 205 207 206 213 220 213 213 222 224 232 245 237
346 347 350 350 351 353 355 355 355 357 2 359 347 341 343 334 314 317 349 349 339 341 12 357 346 350 344 332 328 329 328 331 330 332 343 345 331 314 295 288 285 281 289 283 273 275 268 252 339 317 50 62 30 9 6 356 358 22 5 354 354 222 211 207 215 201 188 193 188 196 209 211 214 211 206 210 211 208 213 223 229 231 224 219 225 238 220
345 346 349 349 349 351 353 355 356 357 0 1 350 338 335 331 319 338 356 354 354 17 21 354 345 347 339 333 333 337 336 339 338 334 336 354 347 320 314 322 304 286 285 269 261 270 262 259 347 281 23 67 39 13 8 3 12 19 355 336 304 247 214 206 212 207 199 195 189 196 206 204 211 215 208 209 210 208 211 218 221 224 223 223 228 235 194
343 344 348 348 346 348 350 353 356 355 359 3 352 333 336 340 342 349 346 346 359 15 13 355 344 343 337 332 335 337 334 342 352 339 329 352 350 330 338 343 323 304 306 277 247 254 261 269 297 261 263 34 40 18 7 18 15 354 340 335 304 252 215 217 232 234 225 209 104 9 283 202 199 208 211 209 209 209 211 218 219 215 221 229 231 234 224
341 341 345 347 345 346 347 350 353 353 357 2 347 326 341 350 347 352 342 330 342 350 353 354 345 335 330 327 328 329 330 339 351 349 343 345 342 338 22 9 351 344 341 310 259 263 259 249 258 270 301 331 360 18 22 29 8 343 338 348 323 238 197 214 255 290 330 347 7 10 348 209 199 204 208 209 211 211 214 220 221 213 221 231 221 220 230
341 340 341 344 344 345 346 347 349 349 353 357 348 334 358 356 344 355 339 314 329 335 332 334 327 320 320 318 314 323 332 339 345 351 341 336 345 353 28 17 4 355 348 330 304 304 262 236 251 301 321 327 318 329 96 51 11 349 352 11 350 267 204 189 239 266 287 302 314 345 339 239 218 211 207 208 213 216 220 225 225 222 228 239 222 215 226
340 340 339 340 340 341 343 344 344 346 348 347 336 336 2 348 328 348 342 317 314 314 312 313 312 316 320 314 319 328 331 335 345 349 326 321 359 8 342 357 3 349 341 333 329 338 312 277 349 348 331 328 313 269 165 92 29 360 354 17 360 303 258 89 280 277 264 246 254 274 262 237 234 232 223 218 221 225 228 232 233 234 237 241 240 237 235
338 341 340 338 336 336 337 338 339 343 345 340 330 337 354 341 328 335 328 316 309 305 307 308 308 315 317 307 339 340 327 332 344 335 316 315 357 5 343 344 351 338 330 321 310 327 331 322 333 335 325 324 323 297 276 34 12 352 349 9 349 321 26 35 310 278 236 226 228 228 236 242 242 241 236 231 230 229 230 232 235 240 243 244 244 247 246
338 340 339 337 336 331 331 332 333 337 341 335 325 333 342 329 321 317 308 308 310 308 312 313 308 315 318 317 340 337 323 332 334 323 326 336 344 343 335 332 333 320 306 302 295 307 318 305 300 308 307 302 308 308 308 329 339 337 342 348 329 318 332 338 288 253 216 196 206 222 240 257 252 241 234 230 228 227 227 226 228 232 237 243 245 246 246
337 338 336 335 333 329 326 326 325 328 331 324 310 320 337 330 310 302 293 295 305 311 310 305 302 314 326 319 321 319 313 322 323 319 347 76 280 313 322 318 315 303 290 295 302 303 302 294 288 290 285 282 285 284 282 294 303 307 317 320 311 308 309 305 262 245 209 165 193 236 251 254 249 237 227 225 225 226 227 226 227 228 231 238 242 242 246
332 333 333 333 330 325 320 317 316 316 316 308 292 301 323 328 306 298 286 284 301 314 307 300 302 311 314 310 309 307 304 308 315 313 306 303 306 312 313 307 301 298 304 310 302 291 287 283 277 272 268 268 271 269 270 274 273 272 284 288 286 286 280 281 284 257 224 169 183 259 239 234 239 221 215 221 223 224 226 227 226 223 225 237 246 251 253
326 328 330 330 325 319 313 309 305 303 303 298 281 282 299 310 287 279 268 283 301 308 296 293 297 299 300 300 299 302 304 306 310 304 296 300 307 304 300 301 295 295 312 310 296 288 286 281 272 260 252 253 255 256 259 260 257 252 250 253 265 269 254 257 268 255 251 255 238 230 227 220 121 84 128 213 229 230 234 239 237 231 229 235 243 248 250
323 324 326 325 321 313 307 304 297 291 293 291 274 269 276 274 261 268 262 274 289 299 301 298 294 291 293 296 299 302 304 304 302 295 291 295 301 300 298 298 297 300 303 297 294 296 291 281 272 258 245 240 241 243 245 245 245 241 233 230 241 249 251 254 252 243 251 253 226 219 222 33 60 172 137 144 189 206 229 240 238 238 240 241 246 250 249
321 321 323 323 319 311 304 301 295 287 284 281 271 267 264 244 234 253 259 263 282 296 301 296 295 298 300 303 306 304 302 301 298 294 296 296 296 297 297 295 300 303 297 293 297 298 290 281 271 253 235 225 229 233 232 232 235 233 227 221 224 233 243 246 240 238 238 240 235 237 274 303 244 206 127 106 142 131 245 246 228 218 238 272 286 273 265
319 321 322 320 313 309 306 301 295 288 281 276 269 265 261 242 229 239 241 242 281 294 293 289 301 312 310 305 306 305 302 303 301 298 298 295 291 292 293 297 300 294 289 291 292 287 285 287 279 253 221 212 225 230 217 214 221 224 224 221 214 218 231 235 230 231 232 241 246 242 251 259 232 189 125 93 76 61 22 270 220 120 76 28 337 290 286
320 321 322 318 310 306 306 301 295 290 284 275 262 254 256 245 227 229 240 239 264 280 292 304 304 304 301 298 298 297 297 302 307 305 299 294 301 303 301 302 294 287 286 285 279 284 282 276 274 267 248 240 249 239 213 210 213 206 209 214 212 211 218 229 237 237 228 234 239 233 237 247 160 142 127 112 99 101 149 240 229 111 69 32 332 308 305
319 319 319 317 312 307 304 301 297 293 287 277 261 248 251 245 226 222 230 228 236 262 283 296 296 294 293 298 299 298 300 303 300 298 298 306 311 309 309 312 293 276 272 264 248 255 266 262 269 274 269 279 282 254 227 227 224 192 189 203 208 208 210 217 228 231 226 232 239 238 241 244 149 131 120 100 73 157 212 228 208 92 54 21 345 320 312
314 313 311 312 311 309 305 301 299 296 291 285 269 251 246 240 223 216 220 230 243 259 275 281 283 286 292 300 304 301 302 302 295 291 293 296 308 318 318 315 302 265 241 259 260 253 260 264 277 290 288 290 267 262 251 236 223 192 180 197 202 202 206 211 220 225 225 230 238 241 245 252 245 208 152 91 29 244 229 227 130 72 13 359 338 312 315
313 310 308 308 309 308 305 303 301 298 296 292 273 248 239 236 221 212 213 225 237 250 271 280 279 280 280 282 285 283 282 285 286 293 291 289 331 334 311 294 288 269 221 247 262 258 264 276 355 317 300 309 284 291 291 261 238 201 186 203 202 200 205 210 218 224 222 222 233 244 240 237 255 243 227 244 271 243 210 155 113 77 333 353 283 286 312
311 309 308 309 308 305 303 302 302 301 300 299 281 248 237 237 225 215 214 219 239 257 268 272 273 275 276 275 274 277 280 277 271 274 280 288 327 327 305 261 193 287 253 240 259 258 270 296 6 338 289 306 329 315 291 261 256 254 231 217 204 202 213 214 211 215 223 225 226 231 224 180 346 280 233 227 255 289 2 348 243 351 349 342 314 298 321
309 308 310 310 308 304 301 301 303 304 304 304 291 260 240 235 227 220 220 223 235 263 266 264 270 276 278 276 274 275 275 270 267 271 277 282 294 299 300 333 336 310 300 286 282 278 302 312 335 331 303 311 306 298 293 270 250 236 234 241 228 207 216 227 215 205 217 220 212 217 306 352 353 333 276 260 300 330 345 325 304 343 352 334 326 331 333
310 310 311 310 308 306 305 306 308 308 307 306 297 268 238 229 225 220 218 219 226 247 263 275 284 281 277 274 271 267 264 262 262 262 264 272 272 263 271 293 294 285 308 309 290 286 308 307 315 303 294 292 280 287 295 285 251 195 207 233 223 181 172 284 263 256 269 256 261 317 321 311 319 326 321 319 319 323 330 319 307 313 335 330 318 318 327
311 311 312 311 308 308 309 310 310 310 308 307 298 267 240 232 222 211 209 215 228 249 262 270 279 280 274 268 262 257 254 254 253 249 245 249 261 262 261 270 276 272 270 277 291 313 314 302 306 295 284 281 281 286 285 273 260 244 232 234 231 208 360 321 287 291 299 286 277 283 285 287 304 323 326 322 316 314 317 315 307 308 315 311 308 312 314
312 311 312 312 310 311 314 314 313 312 308 303 296 274 249 238 219 201 197 206 233 260 262 255 258 271 278 282 276 259 244 239 241 242 235 232 238 251 251 248 255 266 266 260 269 294 300 294 291 281 277 280 276 276 277 271 268 273 259 245 246 244 228 226 254 274 282 275 273 280 284 293 305 312 314 316 313 310 311 309 306 304 296 295 308 308 294
313 313 313 314 313 314 317 317 316 316 309 298 294 279 251 237 219 203 197 199 216 244 264 261 255 267 285 295 286 260 243 237 238 237 230 223 226 236 249 250 249 258 272 279 271 265 271 278 273 266 271 273 263 263 273 277 279 285 277 263 257 253 229 237 247 252 254 259 274 287 290 293 295 294 295 303 301 300 303 303 300 293 283 285 299 291 273
314 315 315 317 318 318 319 318 317 317 308 292 285 272 251 240 221 206 203 202 189 214 248 271 271 271 285 286 273 262 258 253 244 238 233 228 227 234 246 258 260 257 263 274 269 262 263 265 266 267 266 258 249 260 273 280 283 282 275 265 260 262 268 264 260 260 260 260 268 276 278 276 272 270 274 287 300 307 306 294 280 273 266 263 270 271 276
317 317 319 320 320 319 319 319 316 313 301 283 275 266 253 244 226 211 205 197 178 224 249 259 273 289 289 284 279 272 261 250 241 238 237 234 231 234 241 249 255 257 258 259 258 258 259 257 259 262 262 262 262 264 268 273 275 274 269 261 256 255 255 255 256 259 258 256 258 264 269 269 264 266 291 319 334 332 317 298 284 271 256 243 241 227 130
320 321 322 323 322 321 320 318 314 309 294 274 262 256 251 244 234 224 216 209 208 237 276 273 286 301 297 288 284 276 253 240 236 235 235 232 230 231 234 237 241 247 250 250 252 253 252 254 258 258 261 270 272 266 264 267 267 264 261 255 248 249 252 254 257 260 261 265 266 265 272 280 279 285 302 312 323 327 313 305 301 287 262 235 213 177 128
323 324 325 325 322 321 320 316 311 299 278 258 241 240 253 252 241 233 227 220 219 230 273 281 281 294 298 291 288 279 258 243 237 236 235 231 227 227 228 229 231 234 237 241 246 250 252 255 260 262 264 275 280 271 268 265 259 256 259 259 255 254 256 257 261 266 267 270 273 272 270 272 276 284 293 297 301 304 300 299 299 289 266 224 177 140 110
326 325 326 326 324 322 321 316 307 276 223 191 171 196 249 266 244 234 231 226 220 219 243 278 274 296 305 291 280 275 266 250 240 236 234 233 231 227 225 225 227 228 230 233 236 243 251 253 255 257 257 253 259 274 267 261 264 267 265 263 260 261 261 258 257 261 264 268 271 271 267 267 273 281 283 280 281 285 283 282 283 278 260 210 164 134 108
326 326 329 330 329 329 324 310 288 190 172 165 165 196 217 49 236 231 224 219 216 214 226 269 269 292 302 278 265 275 278 266 250 238 232 232 234 230 224 223 223 221 224 230 235 240 247 250 251 258 254 238 233 256 263 259 267 269 261 254 250 253 258 258 255 258 263 266 270 270 266 265 266 268 268 269 269 270 269 267 265 259 242 196 150 130 114
328 330 334 335 337 342 338 320 143 148 162 172 182 215 196 134 132 201 190 193 202 211 227 272 274 288 298 288 287 287 277 262 253 246 234 230 231 228 221 219 220 219 219 227 237 238 243 247 249 257 254 231 220 244 254 247 252 256 255 254 250 245 246 251 257 261 260 257 260 263 260 256 252 251 258 265 268 269 266 255 240 222 205 167 127 113 103
335 336 336 340 355 16 35 83 117 137 162 187 214 249 250 229 243 165 168 170 179 200 218 261 279 280 298 313 313 302 279 264 255 250 238 224 222 226 220 215 220 221 216 219 230 237 241 245 248 252 245 215 209 246 248 238 245 254 260 263 261 252 249 253 259 262 259 250 244 244 246 246 245 245 251 258 261 260 250 222 204 204 192 149 118 107 100
341 339 339 352 23 47 72 94 110 125 148 188 224 269 272 254 236 181 162 156 155 196 192 244 282 283 300 306 305 46 21 314 282 276 273 225 209 227 231 215 215 220 214 215 226 240 245 249 255 258 245 204 207 246 251 245 248 256 264 268 265 259 258 256 250 246 245 244 240 239 241 245 246 245 249 255 254 243 210 172 193 214 189 135 110 103 102
342 339 341 10 59 83 89 89 95 111 131 144 143 348 326 281 230 187 170 157 134 233 203 241 279 284 308 305 309 29 9 325 300 309 317 273 207 236 251 220 215 223 215 211 228 241 247 255 260 257 250 223 216 234 250 259 259 258 261 265 263 259 258 258 254 245 237 234 234 234 233 233 233 237 244 247 235 209 181 173 201 219 192 127 115 112 104
342 336 343 32 88 108 95 76 58 38 51 59 5 357 33 77 157 184 183 174 124 195 212 284 271 254 293 301 306 355 349 327 323 332 320 302 283 282 275 236 231 235 220 219 244 252 268 307 283 265 266 261 247 251 267 276 275 273 272 271 269 261 252 251 253 254 246 233 227 226 221 219 223 228 230 226 205 178 172 176 181 188 162 123 123 121 114
345 343 358 64 135 164 89 74 42 1 350 344 124 98 99 100 112 166 185 194 220 194 172 307 268 246 263 285 287 318 332 328 338 345 334 344 355 321 276 268 278 292 307 279 272 284 307 312 283 274 277 276 273 277 280 278 278 280 276 271 270 266 256 245 241 241 238 226 217 213 209 208 211 208 197 187 175 168 171 170 161 153 144 131 124 116 112
14 16 24 220 253 355 42 41 354 343 354 149 160 145 123 119 127 155 175 202 226 184 158 232 256 243 216 234 258 290 321 319 329 340 338 344 348 341 332 343 346 338 309 289 311 334 303 283 276 277 283 294 307 312 308 296 290 289 281 280 284 281 269 242 211 200 195 191 189 188 188 186 178 165 160 163 164 170 175 167 156 152 144 132 126 119 112
30 25 268 279 340 24 17 340 330 353 110 145 169 182 150 139 142 124 161 201 217 194 189 244 258 239 216 245 271 269 210 267 326 342 327 323 341 360 360 345 342 344 313 292 343 15 325 292 271 277 307 337 347 346 344 344 346 348 340 329 327 325 142 128 137 154 160 159 162 167 166 156 144 138 145 150 150 161 168 162 157 154 144 134 134 129 116
26 1 340 2 10 4 338 330 337 113 148 172 232 259 322 356 349 333 329 345 360 180 210 250 263 225 212 247 295 296 189 219 319 332 324 328 337 331 338 330 319 331 332 324 23 52 347 307 292 334 2 5 356 350 354 4 13 16 6 349 346 13 116 126 117 120 118 115 129 139 138 130 130 138 147 145 141 150 155 150 145 140 130 124 125 120 111
13 1 355 345 329 321 321 324 296 191 216 348 19 22 354 2 14 347 347 8 18 26 193 267 315 320 213 225 270 273 218 224 269 286 308 338 192 215 344 350 319 328 352 356 14 347 326 334 1 16 11 2 354 357 6 15 19 20 13 2 4 28 67 92 99 106 109 107 109 115 119 123 130 142 148 141 138 143 141 131 121 115 110 108 109 109 108
354 351 329 312 307 308 318 340 360 350 353 7 18 10 359 8 13 356 2 22 19 355 329 334 336 335 321 248 260 273 271 272 257 264 308 343 360 302 327 328 328 6 5 355 333 323 339 9 22 15 2 353 353 2 13 19 19 19 17 16 20 30 44 56 61 61 65 75 84 90 101 108 112 118 124 122 114 106 103 101 100 95 90 89 94 100 105
5 7 347 312 300 305 334 1 9 18 21 11 5 5 5 8 7 359 7 27 9 343 349 349 324 321 328 317 288 276 265 265 259 271 309 341 356 316 323 343 7 7 352 335 341 359 20 30 23 6 352 351 357 4 12 19 22 22 23 25 27 31 40 51 55 51 49 56 60 58 61 75 82 82 86 95 98 93 84 79 80 80 78 77 79 81 86
4 357 343 299 337 351 6 11 9 18 25 16 2 359 359 357 356 356 359 359 349 345 351 350 340 349 2 352 327 326 337 275 248 289 348 353 352 348 360 15 15 358 337 349 358 6 24 30 17 1 353 354 0 7 13 18 21 24 27 29 30 32 39 46 50 51 54 58 57 52 49 55 62 60 54 57 70 78 76 74 77 77 75 74 71 67 70
350 337 360 29 18 7 17 26 13 15 22 14 352 349 352 345 341 344 351 343 323 324 336 345 353 6 7 346 332 8 2 331 328 6 349 343 7 18 12 8 5 1 10 18 12 12 19 18 8 1 360 358 358 5 15 21 24 25 28 31 33 35 39 41 43 46 52 55 54 52 50 53 59 59 51 48 55 60 60 63 69 71 70 69 64 59 61
27 9 16 35 33 24 31 33 16 10 11 354 334 335 344 341 335 338 342 333 317 318 327 332 345 13 20 14 3 2 348 345 13 14 343 345 24 22 353 345 7 14 18 20 17 16 16 9 359 356 359 359 0 6 10 13 22 30 34 36 36 36 39 42 46 51 56 57 56 54 52 52 55 57 53 51 53 53 53 56 61 64 65 64 59 54 57
43 21 23 46 44 35 37 39 29 19 15 7 359 357 355 347 343 348 348 341 331 329 328 321 325 5 21 15 7 2 353 355 18 20 10 20 32 19 4 25 29 19 12 14 10 3 360 356 351 353 357 2 10 17 15 13 19 28 35 40 40 37 38 43 49 54 59 63 63 62 62 61 61 60 58 56 56 55 56 59 62 64 64 64 62 59 59
45 20 23 44 45 33 29 29 32 32 25 18 16 15 10 7 12 14 5 352 343 348 352 349 346 7 20 21 29 28 12 4 16 19 13 15 23 16 19 31 31 24 18 13 3 350 343 343 345 352 360 5 12 18 20 19 21 25 30 38 44 44 44 46 47 48 51 56 59 59 59 62 63 64 64 63 60 57 59 64 66 65 65 65 63 59 57
55 39 34 46 54 39 23 18 28 36 29 19 16 15 12 16 21 17 6 356 355 2 5 355 354 13 28 35 45 44 33 24 24 20 14 23 37 38 35 34 32 27 18 2 349 342 340 338 340 352 5 8 9 13 16 20 22 23 25 30 36 41 45 49 51 51 50 53 56 56 55 57 60 61 64 67 64 59 59 61 63 63 63 63 61 56 53
48 44 36 32 38 38 27 23 34 37 28 20 20 16 11 14 18 12 2 355 356 7 22 23 21 28 32 32 44 49 43 36 37 38 36 37 40 40 41 43 37 20 358 347 344 343 343 343 345 354 1 6 10 14 16 18 21 23 23 24 26 31 38 47 51 52 51 53 56 57 56 56 58 59 62 66 68 64 60 59 60 62 63 64 63 59 54
43 53 47 36 34 35 30 30 37 36 26 22 22 15 8 12 12 0 353 354 4 23 31 29 24 30 33 31 34 41 37 32 41 49 47 41 32 29 36 39 30 6 350 348 347 346 351 357 358 358 359 3 8 12 14 19 24 28 28 29 29 31 34 41 47 50 52 55 58 59 58 60 63 65 67 68 68 66 62 57 57 61 62 62 61 59 56
43 56 55 45 36 33 31 33 37 34 27 26 24 14 10 14 7 353 350 359 18 32 34 34 35 42 42 37 32 36 41 40 41 43 44 39 29 24 23 19 10 1 353 346 343 349 359 2 1 1 2 4 5 8 12 19 25 28 30 33 34 34 35 40 44 48 52 54 54 55 59 65 70 71 71 69 67 67 65 60 59 60 61 61 60 60 60